Regional Weather Roundup
Issued by NWS

Home | Current Version | Previous Version | Text Only | Print | Product List | Glossary Off
Versions: 1 2 3 4 5 6 7 8 9 10 11 12 13 14 15 16 17 18 19 20 21 22 23 24 25 26 27 28 29 30 31 32 33 34 35 36 37 38 39 40 41 42 43 44 45 46 47 48 49 50

068
ASUS44 KLIX 170110
RWRLA
LOUISIANA WEATHER ROUNDUP
NATIONAL WEATHER SERVICE NEW ORLEANS LA
800 PM CDT TUE SEP 16 2014

NOTE: "FAIR" INDICATES FEW OR NO CLOUDS BELOW 12,000 FEET WITH NO
      SIGNIFICANT WEATHER AND/OR OBSTRUCTIONS TO VISIBILITY.
      SKY/WX - SKY CONDITION AND SIGNIFICANT WEATHER.
      TMP - AIR TEMPERATURE.    DP   - DEWPOINT TEMPERATURE.
      RH  - RELATIVE HUMIDITY.  PRES - PRESSURE.
      HX  - HEAT INDEX.         WCI  - WIND CHILL INDEX.

*  THESE STATIONS ARE NOT NWS OR FAA STATIONS AND ARE NOT UNDER
   NWS QUALITY CONTROL.

LAZ040-048-061>063-065-066-069-170200-
SOUTHEAST LOUISIANA

CITY           SKY/WX    TMP DP  RH WIND       PRES   REMARKS
N.O. AUDUBON   NOT AVBL
N.O. INTL ARPT CLOUDY    76  74  93 NW3       29.99F
N.O. LAKEFRONT CLOUDY    79  75  87 W12       30.00S
N.O. DOWNTOWN* FAIR      77  72  83 W3        30.00S
SLIDELL        CLOUDY    76  73  91 CALM      29.99S
BATON ROUGE    CLOUDY    73  71  93 W7        30.01S
BOOTHVILLE     CLOUDY    79  76  90 W6        30.00R
BELLE CHASSE   LGT RAIN  78  74  87 CALM      29.99S
BOGALUSA*      RAIN      76  72  87 CALM      30.02F
GALLIANO*      NOT AVBL
NEW ROADS*     LGT RAIN  73  73  97 S3        30.02R
GONZALES*      LGT RAIN  72  72 100 CALM      30.00S
HAMMOND*       MOCLDY    75  72  88 W3        30.01F
HOUMA*         RAIN      77  73  87 CALM      29.99F
PORT FOURCHON* NOT AVBL

$$

LAZ041-044-053-054-170200-
SOUTHWEST LOUISIANA

CITY           SKY/WX    TMP DP  RH WIND       PRES   REMARKS
LAKE CHARLES   LGT RAIN  76  74  93 E6        30.00S
LAFAYETTE      LGT RAIN  74  73  97 CALM      30.04R
PATTERSON      CLOUDY    72  72 100 NW6       30.03R
SALT POINT       N/A     75  72  90 CALM      30.00F
NEW IBERIA     CLOUDY    74  72  93 CALM      30.03S
CHENAULT AIRPK LGT RAIN  75  72  88 E3        30.01S

$$

LAZ027-028-170200-
CENTRAL LOUISIANA

CITY           SKY/WX    TMP DP  RH WIND       PRES   REMARKS
FORT POLK      MOCLDY    73  72  96 S6        30.01S
ALEXANDRIA INT CLOUDY    77  72  84 S7        30.00R
ALEXANDRIA     CLOUDY    79  71  76 S9        30.02R

$$

LAZ001-002-170200-
NORTHWEST LOUISIANA

CITY           SKY/WX    TMP DP  RH WIND       PRES   REMARKS
SHREVEPORT     MOCLDY    81  70  69 E6        29.99R
BARKSDALE AFB  PTCLDY    80  71  73 E3        30.00R
DTN SHREVEPORT PTCLDY    79  71  76 E3        29.99R

$$

LAZ014-016-170200-
NORTHEAST LOUISIANA

CITY           SKY/WX    TMP DP  RH WIND       PRES   REMARKS
MONROE         CLEAR     77  72  84 CALM      30.01R
TALLULAH       CLOUDY    75  70  84 CALM      29.99S

$$




USA.gov is the U.S. government's official web portal to all federal, state and local government web resources and services.